FW6990 Weather Reports


time (UTC)temp
C
wind
direction
speed
KPH
gust
KPH
rain 1hr
cm
rain 24hr
cm
rain mn
cm
humidity
%
barometer
mb
20260506232030 21 168 1.6 8.0 0.00 0.00 0.00 71 1009.2
20260506231528 21 257 3.2 3.2 0.00 0.00 0.00 71 1009.1
20260506231026 21 219 3.2 4.8 0.00 0.00 0.00 70 1009.1
20260506230522 21 211 0.0 3.2 0.00 0.00 0.00 70 1009.3
20260506230020 21 242 3.2 9.7 0.00 0.00 0.00 69 1009.4
20260506225516 21 182 3.2 8.0 0.00 0.00 0.00 69 1009.2
20260506225012 21 226 3.2 4.8 0.00 0.00 0.00 70 1009.3
20260506224509 21 264 6.4 8.0 0.00 0.00 0.00 70 1009.3
20260506224006 21 275 6.4 6.4 0.00 0.00 0.00 70 1009.3
20260506223501 21 206 0.0 4.8 0.00 0.00 0.00 70 1009.1
20260506222959 21 247 1.6 3.2 0.00 0.00 0.00 71 1009.0
20260506222455 21 320 0.0 4.8 0.00 0.00 0.00 71 1009.1
20260506221952 21 218 3.2 4.8 0.00 0.00 0.00 70 1009.1
20260506221449 21 230 0.0 8.0 0.00 0.00 0.00 70 1009.0
20260506220947 21 211 4.8 6.4 0.00 0.00 0.00 70 1009.1
20260506220442 21 191 1.6 4.8 0.00 0.00 0.00 69 1009.2
20260506215939 21 199 0.0 4.8 0.00 0.00 0.00 69 1009.0
20260506215436 21 238 3.2 6.4 0.00 0.00 0.00 69 1008.9
20260506214931 22 259 3.2 6.4 0.00 0.00 0.00 67 1009.2
20260506214428 22 177 6.4 8.0 0.00 0.00 0.00 64 1009.1
20260506213926 22 275 6.4 9.7 0.00 0.00 0.00 65 1009.0
20260506213424 23 236 6.4 9.7 0.00 0.00 0.00 62 1008.9
20260506212921 23 245 1.6 8.0 0.00 0.00 0.00 62 1008.9
20260506212416 23 246 3.2 6.4 0.00 0.00 0.00 63 1008.9
20260506211912 22 319 4.8 8.0 0.00 0.00 0.00 66 1008.8
20260506211408 21 293 9.7 12.9 0.00 0.00 0.00 69 1008.9
20260506210905 21 246 3.2 8.0 0.00 0.00 0.00 70 1008.9
20260506210402 21 278 11.3 19.3 0.00 0.00 0.00 69 1008.8
20260506205859 21 275 3.2 8.0 0.00 0.00 0.00 67 1008.9
20260506205355 22 249 8.0 9.7 0.00 0.00 0.00 66 1008.7
20260506204851 21 260 8.0 9.7 0.00 0.00 0.00 67 1008.8
20260506204349 21 259 9.7 12.9 0.00 0.00 0.00 66 1008.6
20260506203846 22 290 4.8 8.0 0.00 0.00 0.00 66 1008.6
20260506203343 21 208 6.4 8.0 0.00 0.00 0.00 68 1008.6
20260506202840 20 254 3.2 9.7 0.00 0.00 0.00 71 1008.6
20260506202337 20 211 3.2 9.7 0.00 0.00 0.00 71 1008.7
20260506201834 20 213 4.8 14.5 0.00 0.00 0.00 71 1008.6
20260506201331 20 284 6.4 16.1 0.00 0.00 0.00 71 1008.7
20260506200828 20 245 8.0 9.7 0.00 0.00 0.00 72 1008.7
20260506200324 20 262 4.8 12.9 0.00 0.00 0.00 72 1008.8
20260506195820 20 228 3.2 6.4 0.00 0.00 0.00 73 1008.7
20260506195318 20 262 4.8 14.5 0.00 0.00 0.00 72 1008.9
20260506194815 20 258 8.0 16.1 0.00 0.00 0.00 72 1009.0
20260506194311 20 249 4.8 4.8 0.00 0.00 0.00 73 1009.1
20260506193809 20 277 6.4 6.4 0.00 0.00 0.00 73 1009.1
20260506193305 19 221 1.6 9.7 0.00 0.00 0.00 74 1009.3
20260506192802 19 237 4.8 8.0 0.00 0.00 0.00 73 1009.2
20260506192259 19 322 6.4 8.0 0.00 0.00 0.00 74 1009.1
20260506191756 19 294 3.2 4.8 0.00 0.00 0.00 74 1009.3
20260506191252 19 231 3.2 8.0 0.00 0.00 0.00 74 1009.3
20260506190749 19 180 6.4 20.9 0.00 0.00 0.00 74 1009.5
20260506190245 19 199 4.8 9.7 0.00 0.00 0.00 74 1009.5
20260506185742 19 235 11.3 12.9 0.00 0.00 0.00 74 1009.3
20260506185239 19 197 1.6 8.0 0.00 0.00 0.00 75 1009.4
20260506184736 19 244 6.4 17.7 0.00 0.00 0.00 75 1009.4
20260506184233 19 228 9.7 9.7 0.00 0.00 0.00 76 1009.6
20260506183730 18 229 4.8 4.8 0.00 0.00 0.00 77 1009.5
20260506183226 18 278 3.2 8.0 0.00 0.00 0.00 77 1009.5
20260506182723 18 187 3.2 6.4 0.00 0.00 0.00 77 1009.6
20260506182220 18 282 4.8 4.8 0.00 0.00 0.00 78 1009.5
20260506181718 18 211 3.2 8.0 0.00 0.00 0.00 77 1009.7
20260506181216 18 249 1.6 8.0 0.00 0.00 0.00 77 1009.7
20260506180713 18 198 4.8 9.7 0.00 0.00 0.00 76 1009.7
20260506180208 19 233 8.0 12.9 0.00 0.00 0.00 73 1009.8
20260506175705 19 248 6.4 8.0 0.00 0.00 0.00 73 1009.8
20260506175202 19 159 4.8 8.0 0.00 0.00 0.00 72 1009.8
20260506174654 19 239 3.2 8.0 0.00 0.00 0.00 73 1009.7
20260506174151 19 355 1.6 8.0 0.00 0.00 0.00 73 1009.8
20260506173649 19 206 4.8 8.0 0.00 0.00 0.00 73 1009.9
20260506173145 19 187 4.8 8.0 0.00 0.00 0.00 73 1009.8
20260506172642 19 236 6.4 8.0 0.00 0.00 0.00 72 1009.9
20260506172139 19 193 4.8 11.3 0.00 0.00 0.00 72 1010.1
20260506171631 18 212 3.2 12.9 0.00 0.00 0.00 75 1010.0
20260506171129 18 222 4.8 6.4 0.00 0.00 0.00 75 1010.1
20260506170626 18 184 0.0 6.4 0.00 0.00 0.00 75 1010.1
20260506170123 19 219 4.8 8.0 0.00 0.00 0.00 75 1010.2
20260506165621 19 218 6.4 9.7 0.00 0.00 0.00 74 1010.2
20260506165117 20 205 4.8 17.7 0.00 0.00 0.00 74 1010.2
20260506164614 20 133 0.0 8.0 0.00 0.00 0.00 73 1010.3
20260506164112 20 252 1.6 8.0 0.00 0.00 0.00 73 1010.4
20260506163607 20 227 4.8 6.4 0.00 0.00 0.00 74 1010.2
20260506163103 20 187 0.0 6.4 0.00 0.00 0.00 72 1010.3
20260506162600 20 236 3.2 6.4 0.00 0.00 0.00 70 1010.7
20260506162057 20 230 4.8 8.0 0.00 0.00 0.00 70 1010.7
20260506161554 20 272 3.2 4.8 0.00 0.00 0.00 69 1011.0
20260506161051 20 227 4.8 4.8 0.00 0.00 0.00 68 1011.1
20260506160548 20 202 0.0 8.0 0.00 0.00 0.00 68 1011.4
20260506160045 20 179 6.4 8.0 0.00 0.00 0.00 66 1011.4
20260506155544 20 175 1.6 8.0 0.00 0.00 0.00 68 1011.4
20260506153715 20 222 3.2 6.4 0.00 0.00 0.00 66 1011.4
20260506153213 20 180 4.8 4.8 0.00 0.00 0.00 66 1011.2
20260506152709 20 275 3.2 9.7 0.00 0.00 0.00 63 1011.1
20260506152207 20 249 11.3 12.9 0.00 0.00 0.00 62 1011.3
20260506151706 20 223 4.8 8.0 0.00 0.00 0.00 60 1011.2
20260506151202 21 225 4.8 8.0 0.00 0.00 0.00 60 1011.3
20260506150658 21 195 4.8 12.9 0.00 0.00 0.00 58 1011.4
20260506150156 21 230 3.2 8.0 0.00 0.00 0.00 58 1011.1
20260506145653 21 248 6.4 8.0 0.00 0.00 0.00 58 1011.3
20260506145149 21 237 6.4 8.0 0.00 0.00 0.00 58 1011.4
20260506144647 21 252 4.8 14.5 0.00 0.00 0.00 59 1011.4
20260506144144 21 229 3.2 8.0 0.00 0.00 0.00 60 1011.4
20260506143641 20 193 4.8 8.0 0.00 0.00 0.00 60 1011.5
20260506143139 20 176 6.4 9.7 0.00 0.00 0.00 60 1011.5
20260506142637 20 244 6.4 6.4 0.00 0.00 0.00 59 1011.4
20260506142135 20 261 3.2 8.0 0.00 0.00 0.00 59 1011.3
20260506141632 21 240 4.8 8.0 0.00 0.00 0.00 59 1011.3
20260506141131 21 232 12.9 14.5 0.00 0.00 0.00 58 1011.3
20260506140628 21 207 4.8 12.9 0.00 0.00 0.00 59 1011.2
20260506140125 21 203 3.2 9.7 0.00 0.00 0.00 59 1011.3
20260506135622 21 214 4.8 9.7 0.00 0.00 0.00 59 1011.1
20260506135118 20 214 3.2 9.7 0.00 0.00 0.00 60 1011.1
20260506134615 20 234 0.0 4.8 0.00 0.00 0.00 62 1011.0
20260506134110 20 252 3.2 6.4 0.00 0.00 0.00 62 1011.2
20260506133608 20 225 4.8 8.0 0.00 0.00 0.00 62 1011.2
20260506133105 20 248 3.2 4.8 0.00 0.00 0.00 63 1011.2
20260506132602 20 211 3.2 4.8 0.00 0.00 0.00 63 1011.4
20260506132059 20 228 3.2 4.8 0.00 0.00 0.00 62 1011.0
20260506131556 20 254 4.8 6.4 0.00 0.00 0.00 62 1011.4
20260506131052 20 226 4.8 6.4 0.00 0.00 0.00 62 1011.7
20260506130549 20 241 6.4 8.0 0.00 0.00 0.00 62 1011.5
20260506130047 20 248 4.8 6.4 0.00 0.00 0.00 62 1011.5
20260506125545 20 186 3.2 14.5 0.00 0.00 0.00 63 1011.4
20260506125043 20 195 3.2 9.7 0.00 0.00 0.00 62 1011.4
20260506124540 20 211 8.0 17.7 0.00 0.00 0.00 61 1011.5
20260506124038 20 204 4.8 6.4 0.00 0.00 0.00 63 1011.5
20260506123535 20 236 3.2 4.8 0.00 0.00 0.00 63 1011.4
20260506123034 20 212 4.8 8.0 0.00 0.00 0.00 63 1011.2
20260506122529 20 211 6.4 11.3 0.00 0.00 0.00 62 1011.2
20260506122028 20 240 6.4 11.3 0.00 0.00 0.00 63 1011.6
20260506121525 20 197 4.8 4.8 0.00 0.00 0.00 64 1011.3
20260506121021 20 232 3.2 8.0 0.00 0.00 0.00 64 1011.3
20260506120520 20 211 3.2 6.4 0.00 0.00 0.00 66 1011.3
20260506120017 18 205 4.8 6.4 0.00 0.00 0.00 68 1011.4
20260506115514 18 161 3.2 11.3 0.00 0.00 0.00 68 1011.4
20260506115013 18 272 3.2 4.8 0.00 0.00 0.00 69 1011.3
20260506114510 18 220 3.2 8.0 0.00 0.00 0.00 68 1011.4
20260506114008 18 271 3.2 6.4 0.00 0.00 0.00 69 1011.4
20260506113506 18 222 3.2 8.0 0.00 0.00 0.00 69 1011.4
20260506113003 18 209 3.2 4.8 0.00 0.00 0.00 70 1011.4
20260506112459 18 240 1.6 6.4 0.00 0.00 0.00 69 1011.5
20260506111956 18 206 0.0 8.0 0.00 0.00 0.00 69 1011.4
20260506111455 18 197 3.2 3.2 0.00 0.00 0.00 70 1011.4
20260506110951 18 263 4.8 8.0 0.00 0.00 0.00 69 1011.5
20260506110449 18 237 6.4 6.4 0.00 0.00 0.00 69 1011.6
20260506105946 18 232 4.8 8.0 0.00 0.00 0.00 69 1011.6
20260506105442 18 259 3.2 4.8 0.00 0.00 0.00 70 1011.5
20260506104939 18 201 1.6 3.2 0.00 0.00 0.00 72 1011.5
20260506104437 17 243 4.8 4.8 0.00 0.00 0.00 72 1011.6
20260506103936 17 271 8.0 8.0 0.00 0.00 0.00 72 1011.4
20260506103432 17 243 3.2 11.3 0.00 0.00 0.00 72 1011.5
20260506102929 17 223 0.0 6.4 0.00 0.00 0.00 73 1011.4
20260506102427 17 249 4.8 6.4 0.00 0.00 0.00 74 1011.6
20260506101924 17 259 0.0 4.8 0.00 0.00 0.00 74 1011.5
20260506101420 17 126 3.2 11.3 0.00 0.00 0.00 74 1011.6
20260506100918 17 164 3.2 4.8 0.00 0.00 0.00 74 1011.5
20260506100416 17 49 0.0 3.2 0.00 0.00 0.00 74 1011.6
20260506095914 17 225 3.2 4.8 0.00 0.00 0.00 74 1011.4
20260506095412 17 230 0.0 6.4 0.00 0.00 0.00 74 1011.6
20260506094908 17 235 3.2 4.8 0.00 0.00 0.00 75 1011.4
20260506094407 17 281 4.8 4.8 0.00 0.00 0.00 75 1011.3
20260506093904 17 191 0.0 6.4 0.00 0.00 0.00 75 1011.3
20260506093402 17 204 3.2 8.0 0.00 0.00 0.00 75 1011.2
20260506092859 17 137 1.6 3.2 0.00 0.00 0.00 75 1011.3
20260506092357 17 189 1.6 3.2 0.00 0.00 0.00 76 1011.3
20260506091853 17 229 0.0 3.2 0.00 0.00 0.00 75 1011.3
20260506091352 17 255 0.0 3.2 0.00 0.00 0.00 75 1011.2
20260506090848 17 138 3.2 4.8 0.00 0.00 0.00 75 1011.4
20260506090346 17 192 0.0 6.4 0.00 0.00 0.00 75 1011.4
20260506085843 17 257 0.0 4.8 0.00 0.00 0.00 75 1011.6
20260506085339 17 104 3.2 3.2 0.00 0.00 0.00 75 1011.5
20260506084835 17 283 6.4 6.4 0.00 0.00 0.00 75 1011.6
20260506084332 17 165 4.8 4.8 0.00 0.00 0.00 74 1011.6
20260506083829 18 289 1.6 3.2 0.00 0.00 0.00 74 1011.6
20260506083326 18 240 4.8 4.8 0.00 0.00 0.00 74 1011.6
20260506082824 18 51 0.0 3.2 0.00 0.00 0.00 74 1011.7
20260506082320 18 239 0.0 4.8 0.00 0.00 0.00 74 1011.7
20260506081816 18 236 0.0 3.2 0.00 0.00 0.00 74 1011.6
20260506081314 18 77 0.0 4.8 0.00 0.00 0.00 73 1011.7
20260506080812 18 228 3.2 4.8 0.00 0.00 0.00 73 1011.8
20260506080308 18 227 0.0 4.8 0.00 0.00 0.00 72 1011.8
20260506073252 18 283 1.6 4.8 0.00 0.00 0.00 72 1011.6
20260506072749 18 205 0.0 8.0 0.00 0.00 0.00 72 1011.6
20260506072246 18 248 0.0 4.8 0.00 0.00 0.00 72 1011.6
20260506071744 18 238 0.0 6.4 0.00 0.00 0.00 72 1011.6
20260506071242 18 257 1.6 4.8 0.00 0.00 0.00 73 1011.7
20260506070739 18 175 3.2 4.8 0.00 0.00 0.00 73 1011.7
20260506070235 18 88 1.6 4.8 0.00 0.00 0.00 74 1011.8
20260506062212 18 217 0.0 4.8 0.00 0.00 0.00 73 1012.0
20260506061708 18 124 0.0 3.2 0.00 0.00 0.00 72 1012.0
20260506061206 18 185 0.0 4.8 0.00 0.00 0.00 72 1011.8
20260506060705 18 239 3.2 4.8 0.00 0.00 0.00 72 1012.0
20260506060201 18 282 3.2 6.4 0.00 0.00 0.00 72 1011.9
20260506051133 19 256 1.6 8.0 0.00 0.00 0.00 69 1012.2
20260506050631 20 150 0.0 4.8 0.00 0.00 0.00 68 1012.3
20260506050128 19 40 1.6 4.8 0.00 0.00 0.00 68 1012.3
20260506045121 20 204 3.2 4.8 0.00 0.00 0.00 67 1012.2
20260506044619 20 293 0.0 8.0 0.00 0.00 0.00 67 1012.3
20260506044116 20 269 3.2 6.4 0.00 0.00 0.00 67 1012.2
20260506043613 20 231 3.2 6.4 0.00 0.00 0.00 67 1012.3
20260506043111 20 236 1.6 6.4 0.00 0.00 0.00 67 1012.4
20260506042610 20 285 1.6 6.4 0.00 0.00 0.00 66 1012.2
20260506042108 20 191 3.2 4.8 0.00 0.00 0.00 66 1012.2
20260506041606 20 235 1.6 8.0 0.00 0.00 0.00 66 1012.2
20260506041102 20 165 3.2 8.0 0.00 0.00 0.00 65 1012.2
20260506040601 20 204 6.4 8.0 0.00 0.00 0.00 65 1012.3
20260506040056 20 184 0.0 4.8 0.00 0.00 0.00 65 1012.1
20260506035553 20 268 3.2 4.8 0.00 0.00 0.00 65 1012.3
20260506035050 20 225 4.8 4.8 0.00 0.00 0.00 64 1012.3
20260506034547 20 283 1.6 6.4 0.00 0.00 0.00 64 1012.3
20260506034044 20 57 1.6 9.7 0.00 0.00 0.00 63 1012.1
20260506033542 20 234 4.8 4.8 0.00 0.00 0.00 63 1012.3
20260506033038 20 195 1.6 3.2 0.00 0.00 0.00 63 1012.2
20260506032536 20 147 0.0 6.4 0.00 0.00 0.00 62 1012.2
20260506032032 20 233 4.8 4.8 0.00 0.00 0.00 62 1012.3
20260506031530 20 190 0.0 6.4 0.00 0.00 0.00 61 1012.1
20260506031027 20 338 1.6 8.0 0.00 0.00 0.00 61 1012.2
20260506030525 20 167 0.0 6.4 0.00 0.00 0.00 61 1012.2
20260506030022 20 201 4.8 4.8 0.00 0.00 0.00 60 1012.2
20260506025519 20 272 3.2 8.0 0.00 0.00 0.00 60 1012.1
20260506025015 20 234 3.2 8.0 0.00 0.00 0.00 60 1012.2
20260506024512 20 231 4.8 6.4 0.00 0.00 0.00 59 1012.3
20260506024008 20 204 4.8 8.0 0.00 0.00 0.00 59 1012.4
20260506023504 21 176 3.2 4.8 0.00 0.00 0.00 58 1012.5
20260506023002 21 227 0.0 11.3 0.00 0.00 0.00 57 1012.3
20260506022500 21 266 3.2 8.0 0.00 0.00 0.00 57 1012.2
20260506021957 21 208 6.4 9.7 0.00 0.00 0.00 57 1012.4
20260506021454 21 211 0.0 4.8 0.00 0.00 0.00 56 1012.4
20260506020951 21 99 6.4 8.0 0.00 0.00 0.00 56 1012.3
20260506020449 21 227 0.0 4.8 0.00 0.00 0.00 56 1012.3
20260506015946 21 189 3.2 4.8 0.00 0.00 0.00 56 1012.0
20260506015443 21 282 3.2 3.2 0.00 0.00 0.00 55 1012.2
20260506014940 21 156 4.8 8.0 0.00 0.00 0.00 55 1012.0
20260506014437 21 157 4.8 11.3 0.00 0.00 0.00 54 1012.1
20260506013933 21 239 3.2 4.8 0.00 0.00 0.00 54 1011.9
20260506013432 21 217 0.0 3.2 0.00 0.00 0.00 54 1011.9
20260506012928 21 179 3.2 6.4 0.00 0.00 0.00 54 1011.9
20260506012424 21 142 0.0 4.8 0.00 0.00 0.00 55 1011.9
20260506011921 21 207 3.2 6.4 0.00 0.00 0.00 55 1011.8
20260506011419 21 107 0.0 3.2 0.00 0.00 0.00 54 1011.9
20260506010915 21 240 4.8 8.0 0.00 0.00 0.00 54 1011.9
20260506010414 21 247 3.2 8.0 0.00 0.00 0.00 54 1011.8
20260506005910 21 53 1.6 6.4 0.00 0.00 0.00 54 1011.9
20260506005408 21 236 0.0 6.4 0.00 0.00 0.00 54 1011.6
20260506004903 22 259 0.0 4.8 0.00 0.00 0.00 53 1011.6
20260506004401 22 167 3.2 8.0 0.00 0.00 0.00 52 1011.6
20260506003857 22 241 4.8 4.8 0.00 0.00 0.00 52 1011.7
20260506003353 22 32 0.0 6.4 0.00 0.00 0.00 51 1011.6
20260506002850 22 60 0.0 4.8 0.00 0.00 0.00 49 1011.5
20260506002346 22 171 1.6 3.2 0.00 0.00 0.00 49 1011.3
20260506001842 22 340 3.2 6.4 0.00 0.00 0.00 47 1011.4
20260506001339 23 146 3.2 4.8 0.00 0.00 0.00 46 1011.2
20260506000836 23 173 1.6 3.2 0.00 0.00 0.00 45 1011.3
20260506000334 23 237 0.0 3.2 0.00 0.00 0.00 43 1011.3
20260505235830 23 236 4.8 4.8 0.00 0.00 0.00 42 1011.1
20260505235328 24 281 6.4 6.4 0.00 0.00 0.00 42 1011.3
20260505234824 24 140 0.0 3.2 0.00 0.00 0.00 41 1011.1
20260505234322 25 222 1.6 3.2 0.00 0.00 0.00 40 1011.1
20260505233819 25 260 0.0 3.2 0.00 0.00 0.00 38 1010.9
20260505233317 25 279 3.2 4.8 0.00 0.00 0.00 36 1011.0
20260505232814 25 166 1.6 11.3 0.00 0.00 0.00 36 1010.8
20260505232312 25 167 3.2 6.4 0.00 0.00 0.00 36 1010.8